Regional Weather Roundup
Issued by NWS Portland, ME

Current Version | Previous Version | Text Only | Print | Product List | Glossary Off
Versions: 1 2 3 4 5 6 7 8 9 10 11 12 13 14 15 16 17 18 19 20 21 22 23 24 25 26 27 28 29 30 31 32 33 34 35 36 37 38 39 40 41 42 43 44 45 46 47 48 49 50
000 ASUS41 KGYX 250710 RWRGYX WEATHER ROUNDUP FOR MAINE AND NEW HAMPSHIRE NATIONAL WEATHER SERVICE GRAY ME 300 AM EDT THU MAY 25 2017 MEZ002-005-006-010-012-015-018-020-021-024-026-027-029-250800- MAINE CITY SKY/WX TMP DP RH WIND PRES REMARKS PORTLAND CLOUDY 48 47 96 CALM 29.89F SANFORD PTCLDY 44 43 96 CALM 29.89F BAR HARBOR PTCLDY 45 44 97 N3 29.93S WISCASSET PTCLDY 46 44 93 CALM 29.91F ROCKLAND CLOUDY 46 45 96 CALM 29.91S FRYEBURG PTCLDY 47 46 97 CALM 29.90F LEWISTONAUBURN CLOUDY 48 47 96 CALM 29.90F AUGUSTA CLOUDY 50 48 93 CALM 29.90F WATERVILLE CLOUDY 49 48 97 CALM 29.88S BANGOR CLOUDY 47 46 97 CALM 29.92S GREENVILLE N/A 53 48 83 SE5 29.90R MILLINOCKET CLOUDY 48 47 96 CALM 29.93S HOULTON CLEAR 47 44 90 VRB6 29.95R PRESQUE ISLE CLEAR 48 46 93 SE3 29.97S FRENCHVILLE CLEAR 47 45 93 E6 29.95F CARIBOU CLEAR 50 44 80 E3 29.95S $$ NHZ002-005-008-009-011-012-014-250800- NEW HAMPSHIRE CITY SKY/WX TMP DP RH WIND PRES REMARKS PORTSMOUTH CLOUDY 49 48 95 CALM 29.87F ROCHESTER CLOUDY 48 46 93 NW3 29.87F NASHUA CLOUDY 50 48 93 CALM 29.88F MANCHESTER CLOUDY 53 47 79 CALM 29.86F CONCORD CLOUDY 50 48 93 CALM 29.88F LACONIA PTCLDY 51 49 92 CALM 29.89F BERLIN FOG 45 42 89 CALM 29.89S VSB 3/4 WHITEFIELD CLOUDY 45 42 89 CALM 29.88S JAFFREY CLOUDY 48 48 100 CALM 29.87F KEENE CLOUDY 50 49 96 CALM 29.86F LEBANON CLOUDY 51 50 96 CALM 29.85F MT WASHINGTON FOG 39 39 100 SE23 N/A VSB 0 $$ VTZ005-007-008-250800- VERMONT CITY SKY/WX TMP DP RH WIND PRES REMARKS ST JOHNSBURY N/A 51 50 96 MISG 29.85F MONTPELIER MOCLDY 51 50 96 CALM 29.89F BURLINGTON CLOUDY 58 54 86 CALM 29.81F $$ MAZ007-012-024-CTZ003-RIZ002-NYZ038-NYZ072-250800- SOUTHERN NEW ENGLAND AND NY CITY SKY/WX TMP DP RH WIND PRES REMARKS BOSTON CLOUDY 54 51 90 CALM 29.87F WORCESTER MOCLDY 51 46 83 NE3 29.85F NANTUCKET MOCLDY 53 50 89 NE13 29.83S PROVIDENCE CLOUDY 54 51 90 NE8 29.84F HARTFORD CLOUDY 53 50 89 NE5 29.83F ALBANY CLOUDY 60 48 64 SE6 29.80F NEW YORK CITY CLOUDY 58 51 78 E15 29.77F $$ ANZ081-ANZ082-ANZ150-NHZ014-MEZ023>029-250800- COASTAL MARINE OBSERVATIONS STATION/POSITION TIME TEMP WIND PRES WAVE AIR SEA DIR/SP/G HT/PER (UTC) (F) (DEG/KT/KT) (MB) (FT/S) MOUNT DESERT ROC 0700 50 1013.3F ISLE OF SHOALS 0600 54 350/ 2/ 2 1012.0F JEFFREYS LEDGE 0636 51 N/A 3/ 8 CASHES LEDGE BUO 0550 49 50 1013.0 3/ 8 GEORGES BANK BUO 0550 50 45 1009.3 8/ 9 $$ .............KEY.............. WCI - WIND CHILL TC - TEMPERATURE IN CELSIUS VSB - VISIBILITY IN MILES HX - HEAT INDEX FAIR- INDICATES FEW OR NO CLOUDS BELOW 12,000 FT, WITH NO SIGNIFICANT WEATHER AND/OR OBSTRUCTIONS TO VISIBILITY.

USA.gov is the U.S. government's official web portal to all federal, state and local government web resources and services.